• In Portugal
  • List of Countries
  • For 7 days
  • Water Temperature
  • Satellite Maps
  • Weather Map
  • Weather Widgets
  • user-avatar
    Login

    Hourly Weather Pokhara

    Today, 11 December, Monday

    Time Temperature Precipitation Wind Pressure Humidity
    00:00 +17°C° 0 mm 2 mps 685 mmHg 36%
    01:00 +17°C° 0 mm 2 mps 685 mmHg 34%
    02:00 +17°C° 0 mm 2 mps 685 mmHg 31%
    03:00 +16°C° 0 mm 2 mps 684 mmHg 29%
    04:00 +16°C° 0 mm 2 mps 684 mmHg 28%
    05:00 +16°C° 0 mm 2 mps 684 mmHg 27%
    06:00 +16°C° 0 mm 1 mps 684 mmHg 27%
    07:00 +19°C° 0 mm 1 mps 685 mmHg 27%
    08:00 +21°C° 0 mm 1 mps 685 mmHg 26%
    09:00 +22°C° 0 mm 1 mps 686 mmHg 26%
    10:00 +24°C° 0 mm 1 mps 686 mmHg 26%
    11:00 +25°C° 0 mm 2 mps 686 mmHg 26%
    12:00 +26°C° 0 mm 2 mps 685 mmHg 27%
    13:00 +26°C° 0 mm 2 mps 685 mmHg 28%
    14:00 +26°C° 0 mm 2 mps 684 mmHg 30%
    15:00 +26°C° 0 mm 2 mps 684 mmHg 31%
    16:00 +23°C° 0 mm 2 mps 684 mmHg 39%
    17:00 +20°C° 0 mm 2 mps 684 mmHg 47%
    18:00 +18°C° 0 mm 1 mps 683 mmHg 56%
    19:00 +17°C° 0 mm 2 mps 684 mmHg 53%
    20:00 +17°C° 0 mm 2 mps 684 mmHg 51%
    21:00 +16°C° 0 mm 2 mps 684 mmHg 49%
    22:00 +16°C° 0 mm 2 mps 685 mmHg 46%
    23:00 +16°C° 0 mm 2 mps 685 mmHg 43%

    Tomorrow, 12 December, Tuesday

    Time Temperature Precipitation Wind Pressure Humidity
    00:00 +16°C° 0 mm 2 mps 685 mmHg 40%
    01:00 +15°C° 0 mm 1 mps 684 mmHg 37%
    02:00 +15°C° 0 mm 1 mps 684 mmHg 34%
    03:00 +15°C° 0 mm 1 mps 684 mmHg 31%
    04:00 +15°C° 0 mm 1 mps 684 mmHg 29%
    05:00 +14°C° 0 mm 1 mps 684 mmHg 26%
    06:00 +14°C° 0 mm 1 mps 684 mmHg 24%
    07:00 +16°C° 0 mm 1 mps 684 mmHg 22%
    08:00 +19°C° 0 mm 1 mps 685 mmHg 20%
    09:00 +21°C° 0 mm 1 mps 686 mmHg 17%
    10:00 +21°C° 0 mm 2 mps 686 mmHg 17%
    11:00 +24°C° 0 mm 2 mps 686 mmHg 17%
    12:00 +25°C° 0 mm 3 mps 686 mmHg 17%
    13:00 +25°C° 0 mm 3 mps 685 mmHg 20%
    14:00 +25°C° 0 mm 3 mps 685 mmHg 22%
    15:00 +25°C° 0 mm 3 mps 684 mmHg 25%
    16:00 +21°C° 0 mm 2 mps 684 mmHg 32%
    17:00 +18°C° 0 mm 2 mps 683 mmHg 39%
    18:00 +16°C° 0 mm 1 mps 683 mmHg 46%
    19:00 +16°C° 0 mm 1 mps 684 mmHg 44%
    20:00 +15°C° 0 mm 2 mps 684 mmHg 42%
    21:00 +15°C° 0 mm 2 mps 684 mmHg 40%
    22:00 +15°C° 0 mm 2 mps 684 mmHg 39%
    23:00 +15°C° 0 mm 2 mps 684 mmHg 37%

    Day after tomorrow, 13 December, Wednesday

    Time Temperature Precipitation Wind Pressure Humidity
    00:00 +15°C° 0 mm 2 mps 684 mmHg 36%
    01:00 +15°C° 0 mm 2 mps 684 mmHg 36%
    02:00 +15°C° 0 mm 2 mps 684 mmHg 35%
    03:00 +15°C° 0 mm 2 mps 684 mmHg 35%
    04:00 +14°C° 0 mm 2 mps 684 mmHg 34%
    05:00 +14°C° 0 mm 2 mps 684 mmHg 33%
    06:00 +14°C° 0 mm 2 mps 683 mmHg 33%
    07:00 +16°C° 0 mm 1 mps 684 mmHg 30%
    08:00 +18°C° 0 mm 1 mps 685 mmHg 27%
    09:00 +20°C° 0 mm 1 mps 686 mmHg 24%
    10:00 +21°C° 0 mm 2 mps 686 mmHg 22%
    11:00 +24°C° 0 mm 2 mps 686 mmHg 20%
    12:00 +25°C° 0 mm 3 mps 686 mmHg 18%
    13:00 +25°C° 0 mm 3 mps 685 mmHg 19%
    14:00 +25°C° 0 mm 3 mps 684 mmHg 21%
    15:00 +24°C° 0 mm 3 mps 684 mmHg 22%
    16:00 +21°C° 0 mm 2 mps 683 mmHg 28%
    17:00 +18°C° 0 mm 2 mps 683 mmHg 34%
    18:00 +16°C° 0 mm 1 mps 683 mmHg 40%
    19:00 +15°C° 0 mm 1 mps 684 mmHg 38%
    20:00 +15°C° 0 mm 2 mps 684 mmHg 35%
    21:00 +15°C° 0 mm 2 mps 685 mmHg 33%
    22:00 +15°C° 0 mm 2 mps 685 mmHg 31%
    23:00 +15°C° 0 mm 1 mps 685 mmHg 29%

    14 December, Thursday

    Time Temperature Precipitation Wind Pressure Humidity
    00:00 +15°C° 0 mm 1 mps 685 mmHg 27%
    01:00 +16°C° 0 mm 1 mps 684 mmHg 29%
    02:00 +16°C° 0 mm 1 mps 684 mmHg 31%
    03:00 +16°C° 0 mm 1 mps 684 mmHg 33%
    04:00 +16°C° 0.1 mm 2 mps 684 mmHg 36%
    05:00 +15°C° 0.1 mm 2 mps 684 mmHg 39%
    06:00 +15°C° 0.1 mm 2 mps 684 mmHg 42%
    07:00 +16°C° 0.1 mm 2 mps 685 mmHg 43%
    08:00 +17°C° 0.1 mm 2 mps 685 mmHg 44%
    09:00 +19°C° 0.1 mm 2 mps 686 mmHg 45%
    10:00 +20°C° 0 mm 2 mps 687 mmHg 40%
    11:00 +22°C° 0 mm 3 mps 687 mmHg 35%
    12:00 +24°C° 0 mm 3 mps 687 mmHg 29%
    13:00 +24°C° 0 mm 3 mps 686 mmHg 30%
    14:00 +24°C° 0 mm 3 mps 686 mmHg 30%
    15:00 +22°C° 0 mm 3 mps 685 mmHg 31%
    16:00 +20°C° 0 mm 2 mps 685 mmHg 37%
    17:00 +18°C° 0 mm 2 mps 685 mmHg 44%
    18:00 +15°C° 0 mm 1 mps 685 mmHg 51%
    19:00 +15°C° 0 mm 2 mps 686 mmHg 48%
    20:00 +15°C° 0 mm 2 mps 686 mmHg 45%
    21:00 +13°C° 0 mm 3 mps 687 mmHg 43%
    22:00 +13°C° 0 mm 3 mps 687 mmHg 39%
    23:00 +13°C° 0 mm 3 mps 686 mmHg 35%

    15 December, Friday

    Time Temperature Precipitation Wind Pressure Humidity
    00:00 +13°C° 0 mm 3 mps 686 mmHg 31%
    01:00 +13°C° 0 mm 3 mps 686 mmHg 28%
    02:00 +12°C° 0 mm 3 mps 685 mmHg 26%
    03:00 +12°C° 0 mm 3 mps 685 mmHg 23%
    04:00 +12°C° 0 mm 3 mps 685 mmHg 21%
    05:00 +13°C° 0 mm 2 mps 684 mmHg 20%
    06:00 +13°C° 0 mm 2 mps 684 mmHg 18%
    07:00 +15°C° 0 mm 2 mps 685 mmHg 18%
    08:00 +18°C° 0 mm 1 mps 686 mmHg 18%
    09:00 +20°C° 0 mm 1 mps 686 mmHg 17%
    10:00 +21°C° 0 mm 1 mps 686 mmHg 17%
    11:00 +23°C° 0 mm 2 mps 686 mmHg 16%
    12:00 +25°C° 0 mm 2 mps 686 mmHg 15%
    13:00 +25°C° 0 mm 2 mps 686 mmHg 16%
    14:00 +24°C° 0 mm 2 mps 685 mmHg 18%
    15:00 +24°C° 0 mm 2 mps 685 mmHg 19%
    16:00 +21°C° 0 mm 2 mps 685 mmHg 25%
    17:00 +18°C° 0 mm 2 mps 685 mmHg 30%
    18:00 +15°C° 0 mm 2 mps 685 mmHg 35%
    19:00 +15°C° 0 mm 2 mps 685 mmHg 32%
    20:00 +15°C° 0 mm 2 mps 685 mmHg 30%
    21:00 +15°C° 0 mm 2 mps 686 mmHg 27%
    22:00 +15°C° 0 mm 2 mps 686 mmHg 26%
    23:00 +14°C° 0 mm 2 mps 686 mmHg 24%

    16 December, Saturday

    Time Temperature Precipitation Wind Pressure Humidity
    00:00 +14°C° 0 mm 2 mps 686 mmHg 22%
    01:00 +14°C° 0 mm 2 mps 685 mmHg 21%
    02:00 +14°C° 0 mm 2 mps 685 mmHg 21%
    03:00 +14°C° 0 mm 2 mps 685 mmHg 20%
    04:00 +14°C° 0 mm 2 mps 685 mmHg 19%
    05:00 +14°C° 0 mm 2 mps 685 mmHg 18%
    06:00 +14°C° 0 mm 2 mps 685 mmHg 17%
    07:00 +15°C° 0 mm 2 mps 685 mmHg 17%
    08:00 +18°C° 0 mm 1 mps 686 mmHg 17%
    09:00 +20°C° 0 mm 1 mps 687 mmHg 17%
    10:00 +22°C° 0 mm 1 mps 687 mmHg 16%
    11:00 +23°C° 0 mm 2 mps 687 mmHg 15%
    12:00 +25°C° 0 mm 2 mps 687 mmHg 14%
    13:00 +25°C° 0 mm 2 mps 686 mmHg 16%
    14:00 +24°C° 0 mm 2 mps 686 mmHg 17%
    15:00 +24°C° 0 mm 2 mps 685 mmHg 19%
    16:00 +21°C° 0 mm 2 mps 685 mmHg 25%
    17:00 +18°C° 0 mm 2 mps 685 mmHg 30%
    18:00 +15°C° 0 mm 2 mps 685 mmHg 36%
    19:00 +15°C° 0 mm 2 mps 685 mmHg 33%
    20:00 +15°C° 0 mm 2 mps 686 mmHg 31%
    21:00 +15°C° 0 mm 2 mps 686 mmHg 28%
    22:00 +15°C° 0 mm 2 mps 686 mmHg 26%
    23:00 +15°C° 0 mm 2 mps 686 mmHg 25%
    Show more